CZ-6A DEB, 61471

Orbit data source: Space-Track

CZ-6A DEB, 61471 is space debris in LEO originally from a launch on Tue, 06 Aug 2024 UTC launched from the Taiyaun Space Center, China (TSC). Debris objects in space refer to the collection of defunct objects orbiting the Earth. Examples of debris include non-operational satellites, rocket bodies, and fragments generated from explosions, collisions, or faulty payload assembly.

Loading next visibility...
Identifier
61471, 2024-140AAD
Orbit
LEO
Country
Flag of CNCN / PRC
Related business
Manufacturer
SAST
Mission
Spacecraft
Bus & Motor
Unknown
Mass
Unknown
Launch date (UTC)
2024-08-06 (2 years ago)
Launch vehicle
Unknown
Launch site
Taiyaun Space Center, China (TSC)
Object type
Payload
Rocket body
Debris
Shape & HBR
Unknown shape, 0.1 m
Radar Cross Section
Small (<0.1 m²)

Expand to show TLE details & history
Last TLE update: 14 hours ago

TLE from 14 hours ago
0 CZ-6A DEB
1 61471U 24140AAD 26171.25120413  .00002547  00000-0  13260-2 0  9997
2 61471  88.9059 268.3432 0108022 189.2370 170.6831 14.11371457 90426
Epoch: 2026-06-20T06:01Z
TLE epoch observation values (Epoch: 2026-06-20T06:01:44.036Z)
Latitude
-0.00009°
Longitude
-90.5588°
Altitude
934.861 km
Speed
7.345 km/s
True Right ascension
17h 53m 22s
True Declination
0° 00' 00"
Sunlit
Object was in full shadow at epoch
Visualization orbit readout
Latitude
Unknown
Longitude
Unknown
Altitude
Unknown
Speed
Unknown
Apparent Right ascension
Unknown
Apparent Declination
Unknown
Sunlit
N/A
Visualization observer readout
Local Sidereal Time
07:19:09
Azimuth
Unknown
Elevation
Unknown
Doppler factor
Unknown
Orbital elements
Apogee altitude
929.744 km
Perigee altitude
773.548 km
Semi-major axis
7,229.783 km
Eccentricity
0.0108
Inclination
88.9059°
RAAN
268.3432°
Arg. of periapsis
189.237°
True anomaly
170.88086°
Mean anomaly
170.6831°
Eccentric anomaly
170.78224°
Mean motion
3.53065 °/min
Orbital period
101.96 mins
BSTAR
0.001326
Loading maneuver chart data...
Computing Atmospheric mass density...
Loading historical data...
Loading historical data...
Loading historical data...
Loading historical data...
Loading historical data...
Loading historical data...
Loading historical data...

Documentation

Showing up to 5 results
|